Regional Weather Roundup
Issued by NWS

Home | Current Version | Previous Version | Graphics & Text | Print | Product List | Glossary On
Versions: 1 2 3 4 5 6 7 8 9 10 11 12 13 14 15 16 17 18 19 20 21 22 23 24 25 26 27 28 29 30 31 32 33 34 35 36 37 38 39 40 41 42 43 44 45 46 47 48 49 50
000
ASUS43 KBIS 210620
RWRND

NORTH DAKOTA REGIONAL WEATHER ROUNDUP
NATIONAL WEATHER SERVICE BISMARCK ND
100 AM CDT MON APR 21 2014

NOTE: "FAIR" INDICATES FEW OR NO CLOUDS BELOW 12,000 FEET WITH NO
SIGNIFICANT WEATHER AND/OR OBSTRUCTIONS TO VISIBILITY.


NDZ001>003-009>011-017-210700-
NORTHWEST NORTH DAKOTA

CITY           SKY/WX    TMP DP  RH WIND       PRES   REMARKS
WILLISTON      CLEAR     45  32  60 NW9       30.07R
6HR MIN TEMP:  43; 6HR MAX TEMP:  64;

MINOT          FAIR      48  33  56 W17       29.98R
MINOT AFB      FAIR      46  36  67 W17       29.96R
$$

NDZ018>021-031>035-040>046-210700-
SOUTHWEST NORTH DAKOTA

CITY           SKY/WX    TMP DP  RH WIND       PRES   REMARKS
BISMARCK       CLEAR     44  27  51 W6        30.04R
6HR MIN TEMP:  44; 6HR MAX TEMP:  70;

DICKINSON      CLEAR     37  24  59 W8        30.07R
GARRISON         N/A     48  30  49 W12       30.02R
6HR MIN TEMP:  46; 6HR MAX TEMP:  66;

HETTINGER ARPT CLEAR     32  23  69 W5        30.11R
$$

NDZ004>008-012>016-024-026-027-054-210700-
NORTHEAST NORTH DAKOTA

CITY           SKY/WX    TMP DP  RH WIND       PRES   REMARKS
GRAND FORKS    FAIR      50  38  63 W7        29.89S
GRND FRKS AFB  FAIR      50  35  57 W8        29.90S
DEVILS LAKE    FAIR      45  34  65 W12       29.92S
$$

NDZ022-023-025-028>030-036>039-047>053-210700-
SOUTHEAST NORTH DAKOTA

CITY           SKY/WX    TMP DP  RH WIND       PRES   REMARKS
FARGO          MOCLDY    53  33  46 NW3       29.93R
6HR MIN TEMP:  52; 6HR MAX TEMP:  73;

JAMESTOWN      FAIR      48  31  51 W7        29.96R
$$




USA.gov is the U.S. government's official web portal to all federal, state and local government web resources and services.